Location: Demmingen
(48.6757°N, 10.4375°E)
Time: 21:06:05
(UTC+00:00)

CZ-2C R/B - Pass Details

Date: 23 May 2024
Orbit: 784 x 868 km, 98.3° (Epoch: 23 June)

Event Time Altitude Azimuth Distance (km) Brightness Sun altitude
Exits shadow 02:29:16 10° 215° (SW) 2,363 4.4 -8.3°
Reaches altitude 10° 02:29:21 10° 215° (SW) 2,339 4.4 -8.3°
Maximum altitude 02:33:27 24° 268° (W) 1,596 3.8 -7.8°
Drops below altitude 10° 02:37:35 10° 321° (NW) 2,358 5.1 -7.3°
Sets 02:40:23 0° 336° (NNW) 3,298 6.0 -7.0°
